Overview Statistics Trail Chart Weather Telemetry Raw packets
 

This is the latest recevied weather packets stored in our database for station/object IU1OLT-6. If no packets are shown the sender has not sent any weather packets the latest 10 day(s).

<< 1 2 3 4 >>
Time Temp. Humidity Pressure Rain* Wind** Luminosity Snow
1788696414 20.56° C 65% 1019.9 hPa 0 mm - - -
1788695454 21.11° C 61% 1019.9 hPa 0 mm - - -
1788694494 21.11° C 66% 1019.8 hPa 0 mm - - -
1788693534 21.11° C 62% 1019.8 hPa 0 mm - - -
1788692574 21.11° C 61% 1019.8 hPa 0 mm - - -
1788691614 21.11° C 60% 1019.7 hPa 0 mm - - -
1788690654 21.11° C 65% 1019.8 hPa 0 mm - - -
1788689694 20.56° C 59% 1019.8 hPa 0 mm - - -
1788688734 20.56° C 56% 1019.8 hPa 0 mm - - -
1788687774 21.11° C 58% 1019.8 hPa 0 mm - - -
1788686814 20° C 51% 1019.8 hPa 0 mm - - -
1788685854 19.44° C 62% 1019.9 hPa 0 mm - - -
1788684894 19.44° C 56% 1019.8 hPa 0 mm - - -
1788683934 19.44° C 57% 1019.7 hPa 0 mm - - -
1788682974 20° C 55% 1019.6 hPa 0 mm - - -
1788682014 20.56° C 49% 1019.4 hPa 0 mm - - -
1788681054 20° C 58% 1019.3 hPa 0 mm - - -
1788680142 20.56° C 50% 1019.1 hPa 0 mm - - -
1788679230 20° C 49% 1019 hPa 0 mm - - -
1788678270 21.67° C 47% 1018.9 hPa 0 mm - - -
1788677310 20.56° C 46% 1018.6 hPa 0 mm - - -
1788676350 20° C 45% 1018.6 hPa 0 mm - - -
1788675390 19.44° C 48% 1018.5 hPa 0 mm - - -
1788674478 19.44° C 46% 1018.3 hPa 0 mm - - -
1788673577 18.89° C 46% 1018.2 hPa 0 mm - - -

* Rain latest hour (hover to see other rain measurements)
** Current wind speed in m/s (hover to see current wind gust speed)